Regional Weather Roundup
Issued by NWS

Home | Current Version | Previous Version | Graphics & Text | Print | Product List | Glossary On
Versions: 1 2 3 4 5 6 7 8 9 10 11 12 13 14 15 16 17 18 19 20 21 22 23 24 25 26 27 28 29 30 31 32 33 34 35 36 37 38 39 40 41 42 43 44 45 46 47 48 49 50
570
ASUS43 KLOT 241103
RWRIL

ILLINOIS REGIONAL WEATHER ROUNDUP
NATIONAL WEATHER SERVICE CHICAGO/ROMEOVILLE IL
500 AM CST FRI FEB 24 2017

NOTE: "FAIR" INDICATES FEW OR NO CLOUDS BELOW 12,000 FEET WITH NO
SIGNIFICANT WEATHER AND/OR OBSTRUCTIONS TO VISIBILITY.

* THESE STATIONS ARE NOT UNDER NWS QUALITY CONTROL. THEY ALSO MAY NOT
  REPORT WEATHER SUCH AS PRECIPITATION OR FOG.

ILZ001-002-007-009-015-016-024-241200-
NORTHWEST ILLINOIS

CITY           SKY/WX    TMP DP  RH WIND       PRES   REMARKS
MOLINE         CLOUDY    42  37  82 NE12      29.45R
STERLING*      CLOUDY    39  38  96 E15G23    29.46F WCI  31
$$

ILZ003-004-008-010-011-017-018-241200-
NORTH CENTRAL ILLINOIS

CITY           SKY/WX    TMP DP  RH WIND       PRES   REMARKS
ROCKFORD       LGT RAIN  38  35  89 NE15      29.53F WCI  29
FREEPORT*      CLOUDY    35  34  96 NE16G25   29.53F WCI  25
ROCHELLE*      CLOUDY    37  37  97 NE20      29.49F WCI  27
DE KALB*       TSTM      38  38  97 NE13      29.50S WCI  30
PERU*          CLOUDY    42  41  96 NE13      29.44F FOG
$$

ILZ005-006-012>014-019>023-241200-
NORTHEAST ILLINOIS

CITY           SKY/WX    TMP DP  RH WIND       PRES   REMARKS
CHICAGO-OHARE  CLOUDY    40  38  93 N13       29.51F
CHICAGO-MIDWAY CLOUDY    42  39  89 N7        29.50F FOG
AURORA         CLOUDY    40  38  93 NE14      29.49S
LANSING*       CLOUDY    41  41 100 CALM      29.49F FOG
JOLIET*        CLOUDY    44  43  98 N6        29.48S FOG
WAUKEGAN       TSTM      37  36  96 N16G25    29.52F FOG     WCI  28
DUPAGE AIRPORT CLOUDY    39  36  89 NE12      29.49F WCI  32
KANKAKEE*      PTCLDY    58  55  88 S15       29.48F
WHEELING       CLOUDY    38  37  97 NE9       29.53F WCI  31
MORRIS*        CLOUDY    43  42  96 NE6       29.47S FOG
ROMEOVILLE*    CLOUDY    41  41 100 N7        29.49S FOG
NORTHERLY ISL    N/A     40  39  97 MISG        N/A
$$

LMZ740>746-241200-
SOUTHERN LAKE MICHIGAN

STATION/POSITION SKY/WX   TEMP    WIND        PRES    VSBY  WAVE
                          AIR SEA DIR/SP/G                  HT/PER
                          (F)     (DEG/KT/KT) (MB)    (MI)  (FT/S)
HARRISON CRIB              39     320/ 12/ 14   N/A
BURNHAM HARBOR             40     350/  5/  9   N/A
CALUMET HARBOR             39      20/  2/  3  998.8F
BURNS HARBOR               43      CALM  /  2  999.7F
MICHIGAN CITY              46     110/  6/  7   N/A
$$

ILZ025>027-034>036-040-047-049-050-058-095>099-241200-
WEST-CENTRAL ILLINOIS

CITY           SKY/WX    TMP DP  RH WIND       PRES   REMARKS
QUINCY         CLOUDY    61  55  81 S10       29.37S
GALESBURG*     MOCLDY    44  44 100 N9        29.41R FOG
MACOMB*        CLOUDY    56  55  96 S9        29.39S
JACKSONVILLE*  CLEAR     59  54  82 S13       29.40F
PITTSFIELD*    CLOUDY    59  55  86 S10       29.41S
$$

ILZ028>032-037-038-041>044-048-051>054-059>061-241200-
CENTRAL ILLINOIS

CITY           SKY/WX    TMP DP  RH WIND       PRES   REMARKS
PONTIAC        MOCLDY    58  56  95 S17       29.48R
BLOOMINGTON    LGT RAIN  58  55  90 SE18G28   29.37F
DECATUR        MOCLDY    60  55  83 SE14      29.45F
PEORIA         CLOUDY    58  54  86 S12       29.38F
LACON*         CLOUDY    46  46 100 NW6       29.41F FOG
LINCOLN*       CLOUDY    60  57  89 S18G25    29.42F
SPRINGFIELD    MOCLDY    61  55  81 S21G29    29.43F
TAYLORVILLE    CLOUDY    59  56  89 S15G22    29.48F
$$

ILZ033-039-045-046-055>057-062-063-241200-
EAST-CENTRAL ILLINOIS

CITY           SKY/WX    TMP DP  RH WIND       PRES   REMARKS
CHAMPAIGN      CLOUDY    60  55  83 S22G32    29.51R
RANTOUL*       CLOUDY    61  57  88 S17       29.50S
MATTOON        PTCLDY    60  56  86 S12       29.54R
PARIS*         PTCLDY    60  56  87 S22       29.55R
$$

ILZ079-100>102-241200-
SOUTHWEST ILLINOIS

CITY           SKY/WX    TMP DP  RH WIND       PRES   REMARKS
ALTON          CLEAR     59  54  81 SE9       29.46F
BELLEVILLE     CLEAR     61  59  91 VRB7      29.47F
CAHOKIA*       CLEAR     63  53  70 S9        29.46F
SPARTA*        CLOUDY    61  56  85 S18G24    29.51F
$$

ILZ064>066-069>071-074>076-080>082-084>086-088>090-092>094-241200-
SOUTH-CENTRAL ILLINOIS

CITY           SKY/WX    TMP DP  RH WIND       PRES   REMARKS
CARBONDALE     CLEAR     63  57  81 S21G30    29.54S
CAIRO*         CLEAR     61  57  87 S12       29.60F
EFFINGHAM*     PTCLDY    60  57  91 SE10      29.55R
MARION         CLEAR     63  61  94 S15G23    29.57S
MT. VERNON     CLEAR     63  56  78 SW18      29.55R
CENTRALIA*     PTCLDY    63  57  82 S15       29.52R
SALEM*         MOCLDY    64  56  75 S14       29.52S
METROPOLIS*    CLEAR     63  57  81 S5        29.63F
$$

ILZ067-068-072-073-078-083-087-091-241200-
SOUTHEAST ILLINOIS

CITY           SKY/WX    TMP DP  RH WIND       PRES   REMARKS
LAWRENCEVILLE  CLEAR     59  55  87 S15       29.58F
FLORA*         CLEAR     62  57  85 S12       29.55S
FAIRFIELD*     CLEAR     61  57  85 S9        29.54F
HARRISBURG*    CLEAR     63  57  82 S17       29.58F
ROBINSON*      CLEAR     58  55  87 S12       29.58S
CARMI*         CLEAR     60  56  86 S16       29.58F
$$

ABBREVIATIONS USED IN REMARKS
   TC - TEMPERATURE IN CELSIUS
  WCI - WIND CHILL INDEX
   HX - HEAT INDEX
  VSB - VISIBILITY
$$





USA.gov is the U.S. government's official web portal to all federal, state and local government web resources and services.